sat.trackr.live / text

‹ back to catalog

LEMUR-2-KATIE

NORAD 67387 · 2026-004AA

PAYLOAD ACTIVE UNKNOWN

§ Identity

Operator
Country
US
Launch date
2026-01-11
Launch site
AFWTR
Launch vehicle
Mass (kg)
RCS (m²)

Purposes: earth_obs

External: N2YO · Heavens-Above · Gunter

§ Orbital elements

Epoch: 2026-09-19T22:54:00.217152Z

Period
96.60 min
Inclination
97.8103°
Eccentricity
0.0004229
Mean motion
14.90701438 rev/d
Perigee alt
592.8 km
Apogee alt
598.7 km
Semi-major
6,973.9 km
B*
3.2285e-4
RAAN
260.8576°
Arg perigee
120.7090°
Mean anomaly
239.4545°
Rev number
3,742

§ Raw data

LEMUR-2-KATIE1 67387U 26004AA  26262.95416918  .00003113  00000+0  32285-3 0  99942 67387  97.8103 260.8576 0004229 120.7090 239.4545 14.90701438 37426

JSON: /api/v1/satellites/67387 · /tle

For live sub-satellite position, see the globe view (requires WebGL).

§ Visibility from observer

Set your observer location to see the next 7 days of passes ≥ 10°. The values pass through the URL so the page stays shareable.

No JS? Fill the form by hand. The geolocation button needs JavaScript.